CAPE
0 0 0 0 0 0 0 0 0 0 19 0 18 12 0 10 0 22 106 57 98 92 98 219 219 532 575 786 1256 835 1159 1693 1484 1678 1705 1891 1728 1712 1691 1697 1831 1494 1655 1679
0 0 0 0 0 0 0 0 0 0 7 28 83 11 13 0 0 0 10 45 62 101 67 183 228 332 542 770 1104 897 1075 2178 1572 1609 1610 1808 1341 1466 1475 1334 1641 1269 1871 1682
0 0 0 0 0 0 0 0 0 0 16 7 64 159 19 14 38 18 11 19 56 77 85 187 199 248 425 583 1110 1190 1414 2181 1886 1999 1728 1640 1518 1578 1860 1514 1472 1954 1891 1896
0 0 0 0 0 0 0 0 0 0 0 0 62 83 71 95 74 38 32 25 14 50 80 110 234 322 349 694 1109 1089 1514 2247 1761 1929 1625 1587 1577 1562 1458 1709 1291 1563 1805 1759
0 0 0 0 0 0 0 0 0 2 0 4 0 0 34 99 79 99 47 60 19 8 46 120 329 243 435 656 976 1555 1356 2231 1577 1755 1710 1438 1492 1154 1303 1343 1455 2059 1861 1364
0 0 0 0 0 0 0 0 0 0 1 2 0 3 1 72 106 137 160 82 32 23 16 56 170 369 398 719 1330 1693 1554 1548 2252 1381 1696 1852 1968 1581 824 1493 1812 1896 1452 1349
0 0 0 0 0 0 0 0 0 0 0 0 6 3 1 32 57 267 190 68 71 10 27 13 177 417 412 708 1153 1804 1776 1796 2039 2233 2064 2089 2238 1920 1489 1381 1189 1267 763 879
0 0 0 0 0 0 0 0 0 0 0 0 0 1 25 46 38 190 107 19 55 43 38 61 39 257 552 556 1094 2116 2036 1989 2328 2261 2186 2095 2028 2687 1583 1836 1488 764 730 740
0 0 0 0 0 0 0 0 0 0 0 0 0 0 0 3 43 54 32 33 17 16 132 116 85 92 448 556 1132 1387 2383 2238 2418 2637 2448 2403 2024 2034 2814 2017 1835 1484 846 980
0 0 0 0 0 0 0 0 0 0 0 0 0 0 0 13 52 36 48 65 39 8 3 231 110 79 427 611 955 1421 2617 2517 2693 2270 2835 2927 2622 2246 2264 2891 1851 2066 1432 1277
0 0 0 0 0 0 0 0 0 0 0 0 0 0 0 21 117 75 58 38 23 0 102 151 175 116 552 700 903 1365 2400 2629 2891 2799 2537 2875 3135 2775 2229 2582 2378 1668 1655 1352
0 0 0 0 0 0 0 0 0 0 0 0 0 0 0 0 240 149 69 48 11 0 4 51 325 360 539 788 893 1319 2609 2651 2902 3105 3000 2754 2971 3139 2670 2152 2281 2145 1688 1799
0 0 0 0 0 0 0 0 0 0 0 0 0 0 0 0 217 81 35 10 23 15 31 432 400 530 619 984 986 1310 2130 2791 3006 3131 3308 3203 3006 3119 3136 2561 2284 2355 2118 1650
46 0 0 0 0 0 0 0 0 0 0 0 0 0 0 19 103 135 77 85 11 20 8 271 499 417 688 863 1202 1287 1565 2633 3045 3310 3259 3297 3235 3237 3235 3189 2543 2846 2473 2287
0 0 0 0 0 0 0 0 0 0 0 0 0 0 0 0 85 63 108 81 1 105 217 143 509 482 480 693 970 1249 1598 1644 2833 3197 3244 3151 3295 3357 3310 3250 3228 2436 2867 2574
0 0 0 0 0 0 0 0 0 0 0 0 0 0 0 0 215 222 133 74 73 86 390 238 654 543 500 514 762 1005 1360 1700 1892 2826 3058 3082 3049 3404 3366 3297 3255 3270 2593 2920
0 0 0 0 0 0 0 0 0 0 0 0 0 0 0 0 7 208 302 104 33 7 408 455 320 1053 671 651 683 949 1118 1381 1713 2073 2777 2938 3037 3210 3358 3345 3293 3255 3267 3066
0 0 0 0 13 0 0 0 0 0 0 0 0 0 0 0 0 0 0 6 12 5 48 264 655 715 1431 1089 885 932 1096 1262 1576 1882 2216 2748 2924 3178 3486 3489 3437 3241 3292 3127
0 0 0 0 0 0 0 0 0 0 0 4 0 0 0 0 0 0 0 0 0 2 29 43 604 1099 1337 2264 1593 1173 1160 1549 1512 1943 2202 2730 2997 3263 3518 3671 3602 3443 3328 3338
0 0 0 9 0 0 0 0 0 221 96 479 290 244 142 3 0 32 358 293 326 69 0 0 32 70 1400 1373 2493 1980 1536 1906 1776 1800 2473 2604 2991 3285 3671 3743 3700 3595 3352 3321
0 11 1 2 0 0 7 43 41 299 189 792 646 610 564 388 553 468 338 224 410 904 306 0 1 88 640 1426 2775 2629 2115 1925 2743 2631 3017 3302 3462 3842 3917 3813 3740 3612 3448 3277
37 0 0 24 5 0 501 411 402 953 917 829 734 629 550 482 388 392 335 383 306 1167 1395 889 30 573 1221 1484 2707 2884 3028 2766 2733 3721 3677 4232 4273 4123 4001 3884 3852 3589 3567 3349
2 0 3 5 300 596 766 921 1149 1053 838 930 719 1569 442 772 1112 1845 1748 1543 1489 1914 3315 3747 3966 4387 4419 3525 2905 3211 3742 3881 3924 3989 4295 4373 4337 4249 4097 3963 3535 3321 3336 3139
102 101 160 244 481 120 109 507 772 1277 1428 1572 1521 1568 1579 1629 1565 1587 2133 2478 2817 2924 3094 3389 3543 3923 4213 4286 4313 4309 4105 4011 3940 4005 4079 3754 3795 4034 3960 3211 3188 2926 2121 1804
77 25 132 233 584 777 786 409 272 777 914 1111 1122 1364 1517 1536 1489 1494 1690 2102 2435 2793 3325 3969 3977 4028 4049 3970 3967 3937 3886 3823 3900 3858 3740 3377 3346 3451 3072 2807 2246 1985 1760 1542
1 0 170 349 212 394 382 561 736 645 653 746 891 994 1202 1252 1319 1287 1323 1635 1988 2365 2526 2896 3457 3667 3740 3697 3646 3545 3530 3564 3641 3204 2990 2678 2909 2702 2250 1871 1640 1515 1400 1417
CIN
-0 -0 -0 -0 -0 -0 -0 -0 -0 -0 -3 -23 -87 -89 -0 -49 -0 -90 -122 -127 -105 -97 -97 -73 -90 -75 -100 -130 -122 -114 -81 -103 -113 -73 -48 -17 -6 -17 -23 -42 -48 -62 -67 -49
-0 -0 -0 -0 -0 -0 -0 -0 -0 -0 -1 -43 -135 -98 -96 -0 -0 -0 -149 -130 -137 -118 -141 -109 -101 -89 -107 -136 -152 -181 -153 -75 -86 -87 -53 -17 -17 -42 -42 -41 -35 -27 -70 -41
-0 -0 -0 -0 -0 -0 -0 -0 -0 -0 -2 -13 -71 -152 -74 -26 -24 -109 -197 -149 -143 -177 -199 -168 -156 -142 -126 -164 -179 -165 -147 -60 -72 -28 -33 -46 -75 -52 -23 -26 -65 -58 -70 -58
-0 -0 -0 -0 -0 -0 -0 -0 -0 -0 -0 -0 -19 -15 -45 -24 -26 -29 -70 -37 -173 -157 -213 -230 -203 -179 -190 -187 -167 -177 -142 -80 -45 -42 -19 -17 -18 -15 -14 -41 -33 -78 -61 -42
-0 -0 -0 -0 -0 -0 -0 -0 -0 -6 -0 -36 -0 -0 -41 -32 -55 -45 -24 -39 -69 -92 -211 -231 -212 -249 -203 -232 -223 -188 -164 -85 -86 -28 -44 -46 -37 -58 -14 -36 -89 -54 -20 -41
-0 -0 -0 -0 -0 -0 -0 -0 -0 -0 -21 -22 -0 -7 -2 -10 -45 -11 -19 -33 -82 -83 -66 -177 -221 -238 -215 -247 -216 -205 -188 -157 -83 -70 -54 -24 -27 -20 -75 -79 -66 -37 -37 -47
-0 -0 -0 -0 -0 -0 -0 -0 -0 -0 -0 -0 -20 -8 -107 -36 -50 -32 -56 -68 -37 -53 -84 -102 -206 -226 -251 -263 -270 -245 -216 -164 -102 -76 -68 -45 -25 -24 -55 -63 -72 -69 -117 -124
-0 -0 -0 -0 -0 -0 -0 -0 -0 -0 -0 -0 -0 -2 -199 -66 -32 -83 -45 -137 -52 -35 -38 -39 -42 -220 -249 -282 -298 -242 -253 -188 -115 -93 -80 -79 -69 -34 -83 -59 -43 -104 -183 -130
-0 -0 -0 -0 -0 -0 -0 -0 -0 -0 -0 -0 -0 -0 -0 -20 -70 -36 -36 -44 -12 -11 -23 -33 -30 -233 -270 -291 -312 -314 -264 -219 -148 -96 -99 -94 -131 -107 -35 -72 -79 -52 -104 -135
-0 -0 -0 -0 -0 -0 -0 -0 -0 -0 -0 -0 -0 -0 -0 -83 -54 -52 -71 -23 -51 -51 -45 -26 -27 -71 -299 -316 -335 -307 -277 -259 -182 -162 -93 -89 -110 -138 -105 -23 -81 -60 -72 -144
-0 -0 -0 -0 -0 -0 -0 -0 -0 -0 -0 -0 -0 -0 -0 -88 -55 -45 -27 -36 -99 -9 -123 -76 -55 -40 -302 -324 -345 -347 -308 -254 -180 -155 -150 -106 -96 -117 -132 -73 -58 -120 -89 -131
-0 -0 -0 -0 -0 -0 -0 -0 -0 -0 -0 -0 -0 -0 -0 -2 -49 -48 -53 -62 -9 -12 -91 -127 -84 -160 -263 -301 -332 -373 -312 -284 -238 -175 -146 -160 -127 -93 -115 -156 -118 -136 -119 -113
-0 -0 -0 -0 -0 -0 -0 -0 -0 -0 -0 -0 -0 -0 -0 -0 -102 -108 -31 -15 -54 -7 -17 -48 -35 -124 -213 -288 -333 -338 -325 -294 -241 -184 -155 -144 -145 -105 -113 -156 -168 -146 -122 -176
-203 -0 -0 -0 -0 -0 -0 -0 -0 -0 -0 -0 -0 -0 -0 -32 -48 -20 -27 -26 -47 -54 -12 -64 -35 -36 -162 -234 -297 -324 -372 -316 -270 -218 -194 -172 -154 -146 -139 -134 -171 -117 -150 -113
-0 -0 -0 -0 -0 -0 -0 -0 -0 -0 -0 -0 -0 -0 -0 -0 -96 -58 -52 -24 -1 -86 -83 -138 -53 -30 -143 -182 -277 -291 -341 -348 -300 -258 -237 -231 -199 -159 -133 -126 -131 -186 -97 -126
-0 -0 -0 -0 -0 -0 -0 -0 -0 -0 -0 -0 -0 -0 -0 -0 -89 -124 -32 -72 -66 -91 -141 -135 -68 -50 -133 -178 -280 -271 -306 -333 -332 -309 -307 -267 -226 -165 -150 -146 -131 -112 -150 -88
-0 -0 -0 -0 -0 -0 -0 -0 -0 -0 -0 -0 -0 -0 -0 -0 -68 -59 -77 -90 -39 -52 -109 -173 -191 -161 -138 -219 -282 -277 -307 -300 -312 -304 -299 -283 -254 -213 -178 -152 -128 -108 -87 -77
-0 -0 -0 -0 -51 -0 -0 -0 -0 -0 -0 -0 -0 -0 -0 -0 -0 -0 -0 -2 -63 -111 -189 -78 -164 -287 -190 -207 -226 -303 -320 -330 -336 -368 -331 -304 -286 -249 -170 -137 -120 -96 -68 -56
-0 -0 -0 -0 -0 -0 -0 -0 -0 -0 -0 -16 -0 -0 -0 -0 -0 -0 -0 -0 -0 -24 -85 -126 -81 -126 -218 -162 -222 -244 -289 -349 -336 -390 -359 -340 -314 -249 -181 -134 -99 -74 -50 -15
-0 -0 -0 -32 -0 -0 -0 -0 -0 -46 -35 -117 -120 -131 -151 -19 -0 -121 -263 -240 -247 -161 -0 -0 -12 -127 -119 -107 -127 -89 -120 -275 -326 -325 -362 -348 -295 -253 -195 -125 -89 -63 -44 -23
-0 -12 -4 -3 -0 -0 -21 -53 -38 -27 -46 -136 -146 -139 -140 -136 -148 -203 -219 -282 -299 -117 -118 -0 -64 -134 -178 -154 -166 -210 -142 -275 -289 -311 -266 -240 -216 -183 -141 -89 -71 -55 -37 -31
-15 -0 -0 -11 -9 -0 -112 -27 -27 -104 -126 -111 -127 -143 -148 -171 -184 -179 -175 -188 -202 -141 -167 -136 -166 -265 -268 -252 -175 -156 -214 -282 -341 -214 -186 -107 -90 -78 -64 -66 -33 -41 -17 -9
-0 -1 -6 -1 -91 -96 -77 -82 -63 -128 -121 -103 -114 -119 -112 -110 -128 -167 -135 -132 -154 -149 -154 -161 -184 -195 -258 -353 -231 -247 -354 -309 -241 -149 -77 -71 -33 -28 -25 -21 -57 -37 -3 -15
-30 -34 -62 -28 -34 -129 -30 -25 -87 -74 -40 -102 -160 -117 -112 -150 -176 -98 -86 -111 -104 -120 -129 -144 -167 -171 -194 -244 -283 -282 -247 -205 -159 -95 -50 -33 -11 -0 -0 -31 -35 -18 -96 -123
-5 -27 -50 -94 -2 -17 -28 -14 -299 -247 -193 -38 -110 -133 -91 -75 -62 -46 -58 -108 -113 -104 -112 -126 -172 -189 -196 -201 -137 -146 -121 -129 -93 -42 -23 -19 -3 -0 -10 -24 -75 -110 -128 -127
-0 -0 -32 -24 -55 -22 -1 -16 -2 -63 -97 -51 -71 -103 -96 -69 -51 -48 -42 -69 -72 -54 -75 -68 -55 -70 -67 -101 -91 -85 -74 -63 -48 -39 -24 -14 -2 -10 -52 -113 -160 -150 -126 -100
Wind_Speed
nan nan nan nan nan nan nan nan nan nan nan nan nan nan nan nan nan nan 18 nan nan nan nan 6 6 6 7 7 8 7 4 9 8 3 4 2 2 2 2 2 7 10 11 13
nan nan nan nan nan nan nan nan nan nan nan nan nan nan nan nan nan nan nan nan nan 15 nan 9 8 9 11 10 12 11 10 11 11 7 3 5 4 2 1 4 8 11 15 16
nan nan nan nan nan nan nan nan nan nan nan nan nan 20 nan nan nan nan nan nan nan nan nan 10 10 8 9 11 12 13 12 13 11 11 8 8 8 5 4 4 8 12 16 19
nan nan nan nan nan nan nan nan nan nan nan nan nan nan nan nan nan nan nan nan nan nan nan 21 19 15 14 11 14 16 13 15 11 12 10 11 8 5 4 9 12 14 18 19
nan nan nan nan nan nan nan nan nan nan nan nan nan nan nan nan nan nan nan nan nan nan nan 24 25 25 22 21 19 20 20 19 17 12 14 11 11 8 7 9 16 19 17 15
nan nan nan nan nan nan nan nan nan nan nan nan nan nan nan nan 28 25 20 nan nan nan nan nan 23 27 23 26 27 25 26 23 23 18 16 15 14 13 12 14 18 18 9 11
nan nan nan nan nan nan nan nan nan nan nan nan nan nan nan nan nan 32 33 nan nan nan nan nan 23 28 27 24 26 26 28 24 22 21 18 18 17 15 15 18 15 12 9 7
nan nan nan nan nan nan nan nan nan nan nan nan nan nan nan nan nan 32 37 nan nan nan nan nan nan 25 27 28 24 22 24 24 26 25 21 20 17 17 15 16 11 9 10 8
nan nan nan nan nan nan nan nan nan nan nan nan nan nan nan nan nan nan nan nan nan nan 35 13 nan nan 29 28 25 21 23 24 22 21 22 20 19 17 14 11 5 8 7 9
nan nan nan nan nan nan nan nan nan nan nan nan nan nan nan nan nan nan nan nan nan nan nan 8 18 nan 28 32 24 22 23 25 24 22 20 19 19 16 11 6 6 6 8 13
nan nan nan nan nan nan nan nan nan nan nan nan nan nan nan nan 28 nan nan nan nan nan 21 22 28 36 37 34 28 21 24 25 23 23 21 18 16 11 8 6 5 5 8 16
nan nan nan nan nan nan nan nan nan nan nan nan nan nan nan nan 15 34 nan nan nan nan nan nan 28 35 32 29 23 22 24 24 26 24 23 20 16 10 8 10 8 9 16 12
nan nan nan nan nan nan nan nan nan nan nan nan nan nan nan nan 34 nan nan nan nan nan nan 27 28 34 27 24 23 24 23 23 26 24 21 18 14 12 12 11 11 15 15 16
nan nan nan nan nan nan nan nan nan nan nan nan nan nan nan nan 34 38 nan nan nan nan nan 30 37 32 32 23 26 21 20 25 29 27 23 15 15 13 12 12 12 12 16 21
nan nan nan nan nan nan nan nan nan nan nan nan nan nan nan nan nan nan 37 nan nan 23 25 29 32 36 34 28 19 15 22 27 31 30 26 15 16 12 11 13 14 12 10 18
nan nan nan nan nan nan nan nan nan nan nan nan nan nan nan nan 33 35 37 nan nan nan 28 30 38 42 32 32 32 31 32 27 28 28 26 19 16 17 14 14 13 16 17 17
nan nan nan nan nan nan nan nan nan nan nan nan nan nan nan nan nan 29 26 36 nan nan 31 30 32 39 38 41 45 47 41 33 27 23 24 25 21 18 18 15 15 14 16 19
nan nan nan nan nan nan nan nan nan nan nan nan nan nan nan nan nan nan nan nan nan nan nan 36 34 34 38 44 45 46 48 38 30 25 25 27 24 18 18 18 18 18 19 24
nan nan nan nan nan nan nan nan nan nan nan nan nan nan nan nan nan nan nan nan nan nan nan nan 43 31 37 45 42 50 45 38 33 27 27 28 27 23 22 20 23 25 27 29
nan nan nan nan nan nan nan nan nan 49 nan 49 51 49 49 nan nan nan 66 68 61 nan nan nan nan nan 41 33 40 44 39 38 33 26 28 33 31 28 24 26 29 28 30 34
nan nan nan nan nan nan nan nan nan 39 48 61 60 57 57 52 47 41 58 73 68 64 55 nan nan nan 50 41 49 45 35 33 34 34 38 40 38 36 33 31 31 32 35 38
nan nan nan nan nan nan 63 51 45 47 57 57 56 55 59 59 57 51 45 37 48 75 82 72 nan 54 54 61 62 60 51 42 45 49 46 47 48 43 38 39 36 39 39 46
nan nan nan nan 45 60 54 57 66 71 65 65 56 54 51 58 53 58 55 52 52 56 63 78 84 86 74 68 62 75 74 73 62 52 51 51 53 49 42 43 44 40 42 52
66 53 51 52 64 61 55 56 76 77 70 69 66 63 64 68 55 54 55 54 54 56 63 62 66 65 62 77 77 75 81 80 60 56 56 54 54 51 46 46 43 43 47 52
nan nan 52 48 66 62 71 53 59 58 61 65 66 63 57 63 60 58 56 54 57 54 52 53 61 63 61 57 63 74 79 80 62 56 57 58 53 50 51 48 47 47 51 52
nan nan 53 48 57 40 44 74 66 63 73 52 52 58 61 62 59 59 57 58 54 52 51 53 61 65 65 66 62 61 70 72 63 57 53 51 56 51 47 49 56 62 63 59
Wind_Direction
nan nan nan nan nan nan nan nan nan nan nan nan nan nan nan nan nan nan 325 nan nan nan nan 356 357 329 327 329 320 340 310 315 333 342 337 249 206 165 116 28 322 344 335 325
nan nan nan nan nan nan nan nan nan nan nan nan nan nan nan nan nan nan nan nan nan 344 nan 340 343 330 336 333 329 333 326 301 323 314 288 267 247 225 219 272 326 333 331 329
nan nan nan nan nan nan nan nan nan nan nan nan nan 244 nan nan nan nan nan nan nan nan nan 330 340 326 326 333 326 330 325 306 310 302 280 250 244 225 245 288 320 339 319 319
nan nan nan nan nan nan nan nan nan nan nan nan nan nan nan nan nan nan nan nan nan nan nan 334 340 334 336 327 327 322 312 307 305 292 291 280 272 271 290 318 324 312 318 326
nan nan nan nan nan nan nan nan nan nan nan nan nan nan nan nan nan nan nan nan nan nan nan 341 340 341 335 322 320 313 318 310 307 302 293 286 274 286 271 281 311 314 321 328
nan nan nan nan nan nan nan nan nan nan nan nan nan nan nan nan 312 290 281 nan nan nan nan nan 348 334 327 321 312 308 310 315 306 302 291 292 288 286 287 291 310 324 324 327
nan nan nan nan nan nan nan nan nan nan nan nan nan nan nan nan nan 300 316 nan nan nan nan nan 331 346 326 314 316 314 310 306 307 309 305 298 286 295 299 307 317 326 339 324
nan nan nan nan nan nan nan nan nan nan nan nan nan nan nan nan nan 329 317 nan nan nan nan nan nan 348 343 329 319 318 320 313 303 301 302 296 302 278 290 304 325 345 8 10
nan nan nan nan nan nan nan nan nan nan nan nan nan nan nan nan nan nan nan nan nan nan 260 323 nan nan 335 325 323 322 328 331 325 313 300 299 297 305 297 317 7 5 17 28
nan nan nan nan nan nan nan nan nan nan nan nan nan nan nan nan nan nan nan nan nan nan nan 252 338 nan 338 325 309 315 332 334 333 332 322 314 302 300 317 320 27 17 19 346
nan nan nan nan nan nan nan nan nan nan nan nan nan nan nan nan 290 nan nan nan nan nan 295 311 335 321 323 319 301 318 333 331 336 342 344 332 318 319 330 16 359 352 341 331
nan nan nan nan nan nan nan nan nan nan nan nan nan nan nan nan 282 311 nan nan nan nan nan nan 313 306 312 311 312 323 325 330 332 337 345 353 353 353 9 27 340 342 345 332
nan nan nan nan nan nan nan nan nan nan nan nan nan nan nan nan 243 nan nan nan nan nan nan 294 286 287 304 297 304 313 320 328 323 330 340 354 2 22 24 3 348 336 347 343
nan nan nan nan nan nan nan nan nan nan nan nan nan nan nan nan 227 267 nan nan nan nan nan 254 277 282 293 292 296 299 309 318 320 326 335 349 355 6 5 351 346 323 340 344
nan nan nan nan nan nan nan nan nan nan nan nan nan nan nan nan nan nan 274 nan nan 198 215 217 254 266 272 281 285 295 319 315 313 319 333 346 331 336 344 351 329 346 333 338
nan nan nan nan nan nan nan nan nan nan nan nan nan nan nan nan 217 255 254 nan nan nan 253 218 249 265 280 283 277 285 299 307 300 308 329 322 312 316 329 326 317 327 335 324
nan nan nan nan nan nan nan nan nan nan nan nan nan nan nan nan nan 223 238 233 nan nan 212 240 244 259 275 289 295 294 299 302 295 295 304 313 321 311 315 304 303 319 322 314
nan nan nan nan nan nan nan nan nan nan nan nan nan nan nan nan nan nan nan nan nan nan nan 216 237 243 265 280 285 289 286 295 302 287 293 299 311 316 302 300 299 299 309 328
nan nan nan nan nan nan nan nan nan nan nan nan nan nan nan nan nan nan nan nan nan nan nan nan 227 231 259 265 271 276 287 290 296 284 287 295 307 310 304 305 293 294 299 300
nan nan nan nan nan nan nan nan nan 214 nan 214 228 231 235 nan nan nan 220 226 224 nan nan nan nan nan 231 246 262 270 276 281 284 278 283 286 291 295 300 295 288 291 295 302
nan nan nan nan nan nan nan nan nan 219 223 225 226 229 236 241 255 240 221 219 229 229 231 nan nan nan 258 250 257 261 256 276 287 267 262 270 279 284 289 283 283 288 294 291
nan nan nan nan nan nan 208 215 212 214 220 230 230 231 235 238 240 245 247 241 228 235 234 233 nan 249 254 260 262 267 273 264 262 255 257 259 266 270 278 280 278 277 287 286
nan nan nan nan 210 209 208 216 206 215 229 225 230 226 235 234 232 234 237 236 243 244 237 241 244 240 242 245 256 262 261 263 261 248 253 257 257 260 267 271 270 276 280 283
195 196 193 179 200 203 187 198 216 224 217 227 228 233 245 241 236 240 242 245 244 241 244 246 251 244 246 242 247 252 257 260 251 248 248 252 250 255 258 258 266 274 274 282
nan nan 187 183 194 191 206 207 224 225 228 223 230 235 233 241 238 244 241 243 252 252 247 247 248 252 250 244 245 248 252 259 244 246 246 248 247 248 251 252 254 259 260 265
nan nan 196 197 192 201 203 206 212 235 237 239 233 233 237 236 239 244 247 253 254 252 244 243 239 241 240 246 247 244 245 250 247 245 246 245 243 245 251 255 262 255 256 261